O3B FM9

Last updated on Wed Jun 24 2026 00:03:25 GMT+0000 (Coordinated Universal Time)

1 40351U 14083D 26171.62402781 -.00000024 00000+0 00000+0 0 9991 2 40351 0.0564 353.3969 0002705 94.2350 272.3968 5.00116053210242
UTC large
Height (km)
Speed (km/s)
/
Latitude / Longitude
Inclination (degrees)
Orbital Period (minutes)
Azimuth
Elevation
Range (km)
Doppler Factor

Next 0 passes for location: London (51.5072 / 0.1276)

No passes found over London.
O3B FM9